Location: Alafon
(8.4500°N, 4.2333°E)
Time: 01:51:27
(UTC+00:00)

Cosmos 1300 - Pass Details

Date: 05 July 2020
Orbit: 512 x 513 km, 82.5° (Epoch: 06 August)

Event Time Altitude Azimuth Distance (km) Brightness Sun altitude
Rises 19:56:48 0° 356° (N) 2,612 6.7 -25.5°
Reaches altitude 10° 19:58:55 10° 356° (N) 1,727 5.7 -25.9°
Enters shadow 20:00:49 28° 357° (N) 972 4.3 -26.3°
